IRIDIUM 33 DEB, 34896

Orbit data source: Space-Track

IRIDIUM 33 DEB, 34896 is space debris in LEO originally from a launch on Sun, 14 Sep 1997 UTC launched from the Tyuratam Missile And Space Complex (TTMTR). The debris from Iridium 33, an American commercial communications satellite, has been tracked extensively since its accidental collision with the defunct Russian satellite Cosmos 2251 in 2009. This event, occurring at high speed in low Earth orbit (LEO), generated thousands of pieces of space debris, significantly increasing the risk of further collisions. The Iridium 33 debris cloud has impacted space traffic management and orbital debris mitigation strategies, making it a subject of ongoing study in space situational awareness.

Loading next visibility...
Identifier
34896, 1997-051MY
Orbit
LEO
Country
Flag of USUS
Related business
Manufacturer
Unknown
Mission
Spacecraft
Bus & Motor
Unknown
Mass
Unknown
Launch date (UTC)
1997-09-14 (29 years ago)
Launch vehicle
Unknown
Launch site
Tyuratam Missile And Space Complex (TTMTR)
Object type
Payload
Rocket body
Debris
Shape & HBR
Unknown shape, 0.1 m
Radar Cross Section
Small (<0.1 m²)

Expand to show TLE details & history
Last TLE update: 2 days ago

TLE from 2 days ago
0 IRIDIUM 33 DEB
1 34896U 97051MY  26207.36044191  .00003918  00000-0  67159-3 0  9999
2 34896  86.3266 225.2960 0026362 158.1610 265.4734 14.68313774909283
Epoch: 2026-07-26T08:39Z
TLE epoch observation values (Epoch: 2026-07-26T08:39:02.181Z)
Latitude
63.19085°
Longitude
158.73679°
Altitude
678.928 km
Speed
7.522 km/s
True Right ascension
15h 30m 13s
True Declination
63° 03' 02"
Sunlit
Object was in daylight at epoch
Visualization orbit readout
Latitude
Unknown
Longitude
Unknown
Altitude
Unknown
Speed
Unknown
Apparent Right ascension
Unknown
Apparent Declination
Unknown
Sunlit
N/A
Visualization observer readout
Local Sidereal Time
02:13:39
Azimuth
Unknown
Elevation
Unknown
Doppler factor
Unknown
Orbital elements
Apogee altitude
681.937 km
Perigee altitude
644.811 km
Semi-major axis
7,041.511 km
Eccentricity
0.00264
Inclination
86.3266°
RAAN
225.296°
Arg. of periapsis
158.161°
True anomaly
265.17234°
Mean anomaly
265.4734°
Eccentric anomaly
265.32286°
Mean motion
3.6732 °/min
Orbital period
98.01 mins
BSTAR
0.00067159
Loading maneuver chart data...
Computing Atmospheric mass density...

Documentation

Showing up to 5 results
|